Simultaneous Nadir Overpasses (SNOs) Predictions

Prediction of SNOs between NOAA-20 and NOAA-19 Satellite Orbit:

Table of predicted SNOs for the next 14.0 days since TLE Epoch: 8/12/2023
Index Date (NOAA-20) Time (NOAA-20) Lat,Lon (NOAA-20) SZA (NOAA-20 ) Date (NOAA-19) Time (NOAA-19) Lat,Lon (NOAA-19) SZA (NOAA-19 ) Distance(km) Time Diff (sec)
1 08/16/2023 17:15:45 -74.81, 88.29 118.45 08/16/2023 17:14:30 -74.78, 87.97 118.43 9.94 75
2 08/16/2023 18:06:32 74.88,-104.58 61.65 08/16/2023 18:05:24 74.87,-104.51 61.65 2.18 68
3 08/16/2023 18:57:16 -74.86, 62.77 118.36 08/16/2023 18:56:27 -74.87, 62.74 118.34 1.29 49
4 08/16/2023 19:48:02 74.88,-129.97 61.67 08/16/2023 19:47:23 74.86,-130.02 61.67 2.41 39
5 08/16/2023 20:38:47 -74.92, 37.24 118.28 08/16/2023 20:38:25 -74.91, 37.38 118.28 3.79 22
6 08/16/2023 21:29:32 74.89,-155.36 61.70 08/16/2023 21:29:21 74.91,-155.38 61.73 2.17 11
7 08/16/2023 22:20:17 -74.92, 11.85 118.25 08/16/2023 22:20:24 -74.91, 11.87 118.26 1.35 7
8 08/16/2023 23:11:03 74.94, 179.11 61.79 08/16/2023 23:11:19 74.95, 179.25 61.78 4.08 16
9 08/17/2023 00:01:47 -74.93, -13.54 118.22 08/17/2023 00:02:22 -74.95, -13.49 118.21 3.13 35
10 08/17/2023 00:52:33 74.95, 153.72 61.82 08/17/2023 00:53:18 74.94, 153.74 61.80 0.74 45
11 08/17/2023 01:43:17 -74.93, -38.93 118.19 08/17/2023 01:44:21 -74.95, -39.00 118.19 2.72 64
12 08/17/2023 02:34:03 74.95, 128.33 61.84 08/17/2023 02:35:17 74.94, 128.24 61.82 3.07 74



Historial Predications of SNOs between NOAA-20 and NOAA-19
